Home > Weather > Feldkirch > Past weeks

Flag for Austria Past Weather in Feldkirch, Vorarlberg, Austria — Yesterday and Last 2 Weeks

Now
63 °F

Mild.


Feels Like: 63 °F
Forecast: 63 / 79 °F
Wind: 1 mph from Southeast

Location: Feldkirch

Current Time: Jul 24, 2016 at 9:06:11 AM

Latest Report: Jul 24, 2016 at 8:00 AM


Visibility: N/A

Pressure: 30.10 "Hg

Humidity: 92%

Dew Point: 61 °F

Location of FeldkirchLocation

Past Weather in Feldkirch — Graph

°F

Feldkirch Temperature Yesterday

Maximum temperature yesterday: 74 °F (at 5:00 PM)
Minimum temperature yesterday: 61 °F (at 6:00 AM)
Average temperature yesterday: 68 °F

High & Low Weather Summary for the Past Weeks

 TemperatureHumidityPressure
High88 °F (Jul 20, 5:00 PM)97% (Jul 12, 7:00 PM)30.37 "Hg (Jul 12, 7:00 PM)
Low46 °F (Jul 16, 5:00 AM)41% (Jul 19, 7:00 PM)29.80 "Hg (Jul 11, 4:00 PM)
Average68 °F73%30.05 "Hg
* Reported Jul 9 7:00 AM — Jul 24 7:00 AM, Feldkirch, Weather by CustomWeather, © 2016

Note: Actual official high and low records may vary slightly from our data, if they occured in-between our weather recording intervals... More about our weather records

Advertising

Feldkirch Weather History for the Previous 24 Hours

Scroll right to see more
 ConditionsComfort  
Time TempWeatherWind HumidityBarometerVisibility
7:00 AM
Sun, Jul 24
62 °FScattered clouds.No wind92%30.10 "Hg16 mi
6:00 AM62 °FMild.1 mph90%30.09 "HgN/A
5:00 AM64 °FMild.1 mph90%30.09 "HgN/A
4:00 AM63 °FMild.1 mph96%30.10 "HgN/A
3:00 AM63 °FSprinkles. Overcast.1 mph95%30.10 "HgN/A
2:00 AM64 °FMild.1 mph94%30.09 "HgN/A
1:00 AM65 °FMild.No wind91%30.09 "HgN/A
12:00 AM65 °FMild.1 mph93%30.09 "HgN/A
11:00 PM
Sat, Jul 23
66 °FMild.No wind92%30.08 "HgN/A
10:00 PM66 °FMild.No wind90%30.06 "HgN/A
9:00 PM67 °FMild.1 mph84%30.05 "HgN/A
8:00 PM71 °FMild.2 mph74%30.01 "HgN/A
7:00 PM73 °FMild.2 mph69%30.00 "HgN/A
6:00 PM73 °FMild.1 mph74%29.99 "HgN/A
5:00 PM74 °FMild.2 mph67%29.99 "HgN/A
4:00 PM74 °FMild.1 mph71%30.00 "HgN/A
3:00 PM74 °FMild.2 mph71%30.01 "HgN/A
2:00 PM73 °FMild.2 mph72%30.01 "HgN/A
1:00 PM71 °FMild.1 mph75%30.02 "HgN/A
12:00 PM71 °FMild.1 mph76%30.01 "HgN/A
11:00 AM69 °FLow clouds.1 mph75%30.01 "Hg6 mi
10:00 AM71 °FMild.1 mph75%30.01 "HgN/A
9:00 AM67 °FMild.1 mph84%30.01 "HgN/A
Weather by CustomWeather, © 2016

See weather overviewHow to use our weather pages